Volver al catálogo

COSMOS 1275 DEB

ActivoPO
NORAD 42179·DEBRIS·🇷🇺 Russia

Lanzado Jun 4, 1981 desde Plesetsk Cosmodrome

Loading…

Próximos Pases (próximas 24 horas)

TLE

ObsoletoSource: Space-Track

Época: Sep 2, 2026, 12:18 UTC

1 42179U 81053ST  26245.51256199  .00000441  00000-0  41927-3 0  9992
2 42179  83.1297 326.4042 0097959  76.8456 284.3610 13.76473731 64838

Sigue COSMOS 1275 DEB en tiempo real con AllMySat

Download on the App Store